カタログに戻る

STARLINK-35348

運用中通信VLEO
NORAD 65904·PAYLOAD·🇺🇸 United States

打ち上げ Oct 7, 2025 から Cape Canaveral Space Force Station

Loading…

次のパス (今後24時間)

TLE

最新Source: CelesTrak SupGP

元期: Sep 14, 2026, 21:24 UTC

1 65904C 25224Y   26257.89215278  .00025674  00000+0  75833-3 0  2572
2 65904  53.1577 208.0432 0001309  89.2730 323.1241 15.34386482    16

AllMySatでSTARLINK-35348をリアルタイム追跡

Download on the App Store